Zurück zum Katalog

CZ-6A DEB

AktivSSO
NORAD 54619·DEBRIS·🇨🇳 China

Gestartet Nov 11, 2022 von Taiyuan Satellite Launch Center

Loading…

Nächste Überflüge (nächste 24 Stunden)

TLE

AktuellSource: Space-Track

Epoche: Sep 14, 2026, 10:23 UTC

1 54619U 22151NV  26257.43328795  .00000966  00000-0  31171-3 0  9996
2 54619  98.7890 321.9586 0070773 126.5630 234.2099 14.40082787199963

Verfolge CZ-6A DEB in Echtzeit mit AllMySat

Download on the App Store